Location: downtown San Diego
(32.7310°N, 117.1990°W)
Time: 21:52:25
(UTC-07:00)

Cosmos 841 Rocket - Pass Details

Date: 12 July 2018
Orbit: 747 x 772 km, 74.0° (Epoch: 20 September)

Event Time Altitude Azimuth Distance (km) Brightness Sun altitude
Rises 22:53:40 0° 343° (NNW) 3,202 7.9 -28.3°
Reaches altitude 10° 22:56:02 10° 344° (NNW) 2,272 6.8 -28.5°
Enters shadow 23:00:24 65° 348° (NNW) 823 3.7 -29.0°
